User: anonymous   Login
Location: Unspecified
(0.0000°N, 0.0000°E)
Time: 07:58:38
(UTC+00:00)
Language:

Milstar DFS 1 - Orbit

View from above orbital plane
View from above orbital plane
View from above satellite
View from above satellite

Ground track
Ground track

The orbit data is extracted from the following two-line orbital elements,

1 22988U 94009A   17116.69185231 0.00000000  00000-0  00000-0 0    05
2 22988  12.1111  65.1913 0004350 282.6338  77.3230  1.00270000    09
Epoch (UTC): 26 April 2017 16:36:16
Eccentricity: 0.0004350
inclination: 12.1111°
perigee height: 35768 km
apogee height: 35805 km
right ascension of ascending node: 65.1913°
argument of perigee: 282.6338°
revolutions per day: 1.00270000
mean anomaly at epoch: 77.3230°
orbit number at epoch: 0

The dashed part of the orbit path shows where the satellite is in the earth's shadow,  

DLR